Location: Unspecified
(0.0000°N, 0.0000°E)
Time: 11:07:19
(UTC+00:00)

Explorer 11/Cluster Stage 4 - Pass Details

Date: 07 October 2020
Orbit: 467 x 1258 km, 28.8° (Epoch: 28 October)

Event Time Altitude Azimuth Distance (km) Brightness Sun altitude
Rises 14:07:44 0° 212° (SSW) 3,588 10.3 54.6°
Reaches altitude 10° 14:12:23 10° 184° (S) 2,419 9.3 53.4°
Maximum altitude 14:14:34 12° 161° (SSE) 2,161 8.9 52.9°
Drops below altitude 10° 14:16:36 10° 138° (SE) 2,206 8.8 52.4°
Sets 14:20:21 0° 106° (ESE) 2,932 9.2 51.5°
